Theta_e
323 322 322 323 326 324 324 326 329 329 329 327 330 328 327 327 327 337 335 336 337 337 332 325 321 318 315 316 319 329 333 329 331 324 318 312 312 312 315 327 323 317 313 314 312 312 313 322 329
319 322 323 323 326 322 321 324 327 325 324 329 328 326 325 332 334 335 335 336 335 334 333 326 325 322 318 318 317 329 332 332 331 321 312 311 312 319 326 329 328 315 316 315 320 325 327 325 327
319 320 323 325 325 322 321 322 326 326 324 325 326 326 325 330 334 336 336 335 334 333 335 322 319 315 313 313 321 331 332 332 330 321 312 310 310 312 322 329 328 324 317 316 319 327 325 325 325
320 322 321 324 324 321 321 322 324 326 322 322 325 325 328 332 335 336 334 334 333 336 336 319 317 313 311 312 316 329 331 330 325 317 311 309 309 310 313 321 329 327 318 325 325 325 323 324 324
318 322 324 325 323 320 320 322 323 325 322 323 322 324 330 333 335 335 334 333 334 336 338 319 317 316 315 313 316 329 328 322 316 314 311 309 309 309 309 312 323 326 322 326 325 324 323 318 320
320 322 324 325 322 320 321 322 324 323 321 322 321 323 330 333 335 334 333 334 336 337 332 319 318 320 320 317 315 320 317 315 315 315 314 312 310 309 309 314 327 327 325 325 324 317 315 314 315
321 323 325 324 322 321 321 322 322 321 320 321 323 323 330 334 335 333 333 335 336 335 336 321 319 321 322 321 319 317 317 317 317 317 315 314 312 310 309 311 324 327 325 324 321 317 315 314 314
320 323 324 323 322 321 321 320 320 320 320 321 324 322 327 334 335 332 333 335 335 335 338 331 323 320 319 322 322 321 320 319 319 319 317 315 313 312 311 310 311 321 325 320 316 314 314 313 313
318 322 323 322 320 321 320 320 319 318 320 322 323 323 328 335 334 332 333 335 335 336 338 335 332 331 329 321 321 322 322 321 321 321 319 317 316 315 315 313 312 318 320 316 313 313 313 313 313
320 324 323 322 320 321 320 320 319 318 319 319 321 325 333 334 334 332 332 334 335 335 335 332 333 333 332 330 322 322 323 323 322 323 322 320 319 318 318 315 314 314 315 314 313 313 313 315 317
320 323 321 319 318 320 320 319 319 319 319 319 319 322 332 334 334 333 332 333 334 335 335 330 330 332 332 331 327 328 323 323 323 324 323 323 321 320 319 319 317 316 317 318 316 315 316 317 321
319 317 318 317 316 318 319 318 318 319 318 317 318 320 329 332 333 333 333 333 333 335 335 330 329 329 332 332 330 328 328 326 325 324 324 324 323 322 322 322 322 320 320 320 319 319 318 319 319
319 317 316 315 315 318 317 318 318 318 317 315 315 319 325 330 331 331 332 332 333 334 334 334 329 328 329 330 330 331 328 328 327 326 325 325 324 324 323 323 323 322 322 321 320 320 319 319 319
317 317 316 315 315 314 317 316 315 316 314 314 315 318 322 327 330 331 331 332 332 333 334 334 332 330 330 329 329 329 329 330 328 328 327 327 326 325 325 324 324 324 323 322 321 320 320 320 319
316 316 316 315 315 315 314 316 316 313 312 314 314 317 320 324 328 330 331 331 332 333 334 334 334 330 331 332 332 332 330 330 329 328 328 328 327 327 326 326 325 325 325 324 323 322 320 320 319
316 317 317 315 315 314 314 318 316 312 312 314 314 315 317 320 326 329 330 331 331 333 334 335 334 327 328 330 330 331 330 329 328 328 328 327 328 328 328 327 327 326 325 324 323 322 321 321 321
315 317 316 313 314 315 314 317 313 313 313 314 314 314 314 315 317 325 328 330 331 332 333 334 333 324 326 327 328 329 329 330 330 329 329 328 327 327 328 327 327 327 326 325 324 323 323 322 322
316 316 315 316 314 314 315 315 314 313 314 315 315 315 314 314 313 313 314 321 328 330 331 333 333 328 326 328 329 329 329 331 335 334 331 330 330 329 328 328 328 328 326 325 324 324 324 324 324
316 315 314 314 313 315 315 315 315 314 314 315 315 315 314 313 311 312 312 312 313 316 328 330 332 333 325 327 330 330 329 329 333 335 332 330 330 331 331 332 331 329 328 328 327 326 326 326 326
315 314 314 313 313 314 315 315 315 314 314 313 313 313 312 312 311 310 310 311 312 312 313 320 328 331 332 326 326 328 328 328 329 331 330 330 335 335 331 329 328 328 328 328 328 329 329 328 327
313 314 314 314 312 312 313 314 315 311 312 312 312 311 311 312 312 312 311 310 310 311 311 312 316 325 329 329 325 325 330 330 328 325 326 326 329 330 330 329 328 327 327 326 326 327 327 327 327
313 313 314 314 314 313 312 313 315 313 313 314 314 313 313 312 312 313 312 312 312 311 311 310 311 312 316 323 328 323 324 326 327 330 325 330 329 329 329 328 326 326 325 325 325 326 325 326 325
313 313 314 315 315 314 314 313 315 312 314 314 314 313 312 312 312 311 311 312 312 312 311 310 310 310 311 312 320 326 326 328 326 327 325 326 326 325 326 326 325 323 324 324 325 325 324 326 325
311 313 313 314 315 313 314 313 314 312 314 314 313 312 312 311 311 311 311 311 312 312 313 313 312 311 311 311 312 319 322 321 320 322 319 323 326 326 326 324 323 325 325 324 324 323 323 324 325
313 313 313 313 314 313 310 312 313 311 314 314 313 312 311 312 312 311 311 311 311 312 312 312 313 313 313 313 313 313 313 313 312 312 312 312 312 312 313 314 315 318 319 320 322 322 322 322 321
313 313 315 315 315 313 308 312 313 312 313 314 312 312 312 311 311 311 310 311 311 311 312 312 312 312 312 312 312 312 312 312 312 312 312 311 311 311 311 311 311 311 311 311 311 312 313 315 318
313 312 312 311 308 315 312 312 311 309 312 312 312 311 312 312 311 310 310 311 311 312 312 312 312 312 312 312 311 311 309 309 308 308 308 308 308 309 309 310 310 310 311 310 310 310 311 310 310
311 311 311 313 319 319 312 313 313 310 312 312 311 312 312 311 310 309 310 311 311 311 311 311 310 309 308 308 307 306 306 305 305 305 305 305 305 305 306 306 307 307 308 308 308 309 309 309 309
310 311 311 312 314 319 315 313 312 312 313 313 312 313 312 311 310 309 310 310 310 309 309 308 308 307 307 306 305 305 304 304 303 303 302 302 302 302 302 301 301 301 301 302 303 304 305 306 306
311 312 311 313 313 311 314 315 311 313 312 313 313 312 311 310 309 308 309 308 308 307 307 307 306 305 304 303 303 302 301 301 301 300 300 300 300 299 299 299 299 299 299 299 299 300 300 301 302
Wind_Speed
4 5 6 4 6 5 4 5 2 5 6 4 5 4 9 10 8 4 12 11 14 15 18 12 11 11 10 11 13 11 9 6 9 9 11 11 11 11 13 16 13 14 13 13 14 15 16 16 17
2 4 5 5 5 6 6 6 6 5 7 7 3 0 1 10 9 12 12 16 17 16 15 13 11 10 9 10 12 11 10 8 7 10 12 11 11 14 16 17 10 12 13 15 15 16 15 14 15
1 2 9 3 4 1 6 7 9 9 5 3 2 2 3 5 8 12 12 20 18 16 12 11 12 11 9 11 12 11 10 6 4 8 10 9 10 11 14 15 10 11 14 14 16 15 12 13 12
1 4 6 7 5 4 2 8 11 10 3 2 1 6 6 5 12 8 19 20 17 14 13 12 11 10 11 13 13 12 9 7 5 8 8 8 8 10 12 13 14 9 10 15 14 11 9 11 10
2 7 6 4 4 3 2 8 10 9 8 5 2 5 7 6 8 15 21 19 17 12 11 11 11 11 10 11 14 12 9 7 5 7 8 8 8 8 11 11 12 8 11 13 10 8 9 8 8
8 9 6 8 6 5 5 8 8 7 5 5 3 4 7 8 11 18 20 18 14 12 13 11 11 11 11 10 11 10 7 6 5 7 7 7 7 8 10 11 13 8 8 9 7 7 8 10 9
11 8 9 6 8 7 6 10 9 7 6 4 2 3 6 10 13 19 20 16 14 13 14 12 11 11 9 9 9 8 7 5 5 6 6 7 8 7 9 9 12 8 5 4 6 5 6 7 7
6 6 4 7 9 5 10 11 6 7 6 5 1 4 8 15 17 19 19 17 16 13 12 12 9 9 8 8 8 7 6 5 4 5 6 7 6 6 7 7 6 6 5 4 4 3 3 5 5
5 6 7 8 8 9 15 10 6 4 6 5 3 4 8 17 20 21 20 17 17 14 13 13 11 9 8 7 7 7 6 4 3 3 3 4 5 5 5 5 3 5 4 3 3 2 2 3 3
6 6 9 5 3 11 16 10 11 8 8 7 7 6 13 18 20 23 22 21 20 18 17 15 14 11 10 8 8 7 7 5 4 3 2 3 2 2 2 2 2 2 2 2 2 2 2 3 4
7 9 6 5 4 10 14 8 9 7 7 7 11 12 14 17 18 20 20 19 20 18 17 19 17 15 13 11 10 8 8 8 7 6 4 2 1 1 1 1 2 1 0 2 2 2 2 1 3
9 2 3 5 4 7 13 11 7 7 7 7 7 13 15 18 19 19 18 18 19 18 18 18 19 18 15 14 12 11 10 10 9 8 7 6 5 4 3 3 2 3 1 1 0 0 0 1 1
7 8 5 7 7 7 7 6 3 7 6 7 8 11 13 15 16 17 17 17 18 18 18 17 20 20 19 18 14 14 13 12 11 11 9 9 8 6 6 5 5 4 4 4 3 2 2 1 2
6 10 10 7 8 4 6 3 0 3 5 7 8 8 12 14 16 15 18 19 20 20 19 18 19 22 21 21 19 17 16 14 13 13 12 11 11 10 9 9 8 8 7 7 6 5 5 5 5
15 7 6 6 6 3 1 3 7 6 5 5 8 10 10 13 15 17 17 18 18 19 18 19 18 19 21 21 20 19 17 17 17 15 15 14 13 13 12 12 12 11 9 9 9 10 11 10 10
7 8 8 6 6 3 3 5 8 3 8 8 8 10 9 10 15 15 15 16 17 17 18 18 22 21 19 20 19 19 18 15 14 16 17 16 16 16 16 16 15 13 13 13 13 14 14 16 17
8 10 14 6 6 4 7 5 6 3 5 8 9 8 8 9 10 13 15 16 17 17 18 19 19 19 19 19 19 19 18 17 16 15 16 15 15 16 17 17 16 16 16 17 18 18 20 20 22
13 15 9 12 8 6 8 10 5 6 4 7 6 6 7 7 7 9 13 18 17 18 18 19 19 21 20 20 20 21 21 21 20 20 21 17 17 17 18 19 20 19 19 20 22 22 24 26 26
16 14 10 8 3 6 12 10 9 6 5 8 7 5 5 5 9 13 15 17 20 22 21 20 20 19 22 23 24 23 24 23 24 23 25 23 21 20 21 22 23 25 23 24 26 28 29 31 31
10 14 9 5 3 4 5 11 10 3 5 3 5 6 4 3 3 8 13 17 19 21 22 22 21 19 20 22 23 24 24 23 23 25 25 25 25 25 24 24 24 23 26 25 26 30 31 36 35
10 14 12 4 6 1 2 8 12 4 5 3 2 3 3 4 4 2 4 9 13 18 23 23 22 20 19 19 18 21 23 24 24 23 24 23 22 22 22 23 24 25 26 27 27 27 31 33 33
9 2 10 11 11 5 3 4 8 8 6 5 5 5 5 7 7 7 6 5 5 8 13 19 20 19 19 18 16 20 20 21 19 18 18 19 20 20 20 21 22 22 24 26 26 27 29 31 35
4 8 9 9 5 1 6 5 5 8 8 6 7 8 8 9 10 10 11 11 10 9 8 10 14 16 16 16 14 10 11 9 10 11 12 13 15 18 18 19 20 23 24 26 26 27 29 31 34
16 12 10 6 3 5 10 8 8 8 11 11 11 11 10 10 10 13 14 15 15 15 15 13 11 10 9 9 11 9 8 9 10 10 12 13 14 16 16 19 21 22 24 27 27 30 31 34 38
10 15 5 6 5 5 3 4 4 7 6 13 17 16 13 12 11 12 14 17 19 20 20 19 17 17 14 11 9 7 4 3 3 4 5 7 8 9 11 15 17 21 24 26 28 30 32 32 35
14 16 6 7 6 6 3 7 2 8 8 16 17 18 15 12 12 13 14 17 19 19 19 18 18 18 16 14 13 10 8 7 7 7 7 8 9 10 11 13 15 16 18 20 22 25 28 32 37
12 8 4 6 1 2 6 5 4 8 11 17 18 17 16 14 12 14 15 17 18 18 19 17 16 15 14 13 11 10 8 7 6 7 8 9 11 12 13 15 16 17 19 22 24 26 27 29 31
8 12 4 3 6 4 7 8 7 15 18 17 19 21 18 15 14 14 15 16 17 17 17 16 15 13 12 10 9 8 7 7 8 9 10 12 14 15 17 18 19 20 21 23 25 26 27 30 32
4 6 5 4 3 4 4 5 3 20 22 22 25 24 21 18 16 16 17 18 17 16 16 14 13 11 9 8 7 7 7 8 9 11 13 14 16 17 19 20 22 23 24 25 27 28 30 31 32
5 10 13 5 5 2 2 3 4 8 23 27 26 24 21 19 17 18 18 18 17 15 13 12 10 8 6 6 6 8 9 10 10 12 14 16 18 20 22 24 26 27 27 28 30 32 33 35 36
Wind_Direction
27 7 340 292 240 253 121 150 94 134 142 66 73 348 37 29 7 38 138 127 146 150 170 157 140 127 123 122 124 125 120 86 83 68 71 82 82 79 87 89 80 87 92 89 89 90 99 94 94
355 4 308 271 255 195 135 130 172 98 85 108 102 270 131 82 60 115 134 138 139 139 141 160 154 138 130 119 123 129 123 110 81 67 72 84 84 84 85 91 81 78 86 91 94 88 86 96 101
36 358 276 268 284 171 130 174 124 110 113 140 140 10 15 75 103 124 144 143 141 138 142 148 137 137 132 130 128 122 126 126 78 67 67 85 90 92 104 107 89 76 68 93 97 91 89 93 101
335 246 234 250 171 68 57 162 130 145 142 157 310 96 89 69 133 135 146 144 145 147 155 143 135 133 139 133 138 133 142 138 113 76 76 86 95 91 90 107 100 85 66 88 86 91 87 96 101
216 252 232 238 153 117 141 145 157 173 142 156 185 106 84 117 128 133 145 147 147 159 156 146 134 130 129 134 142 140 148 103 69 74 80 89 96 92 87 105 116 101 95 92 95 89 84 90 88
214 248 225 204 171 143 141 154 168 172 141 126 187 125 91 144 132 143 147 147 148 146 144 145 137 133 132 134 135 135 131 123 99 87 88 94 97 95 91 102 93 98 92 111 116 82 70 76 74
243 217 231 197 157 164 153 163 173 166 151 146 80 130 113 150 150 150 147 149 149 167 151 149 147 144 142 141 137 139 139 126 107 94 91 91 91 91 90 105 115 119 125 128 98 79 69 71 67
237 244 218 209 182 139 150 162 168 169 127 128 129 152 157 167 153 154 153 154 159 167 166 154 161 153 154 156 153 147 149 139 123 98 86 87 89 90 89 100 124 133 120 126 121 97 67 61 48
242 211 213 184 197 144 158 163 162 146 135 133 128 76 119 159 155 157 161 162 169 173 185 178 171 166 166 173 174 168 168 163 160 132 105 96 87 92 98 99 109 111 124 105 115 119 80 47 41
232 223 205 159 111 157 169 184 157 162 149 158 147 116 144 157 166 168 174 176 181 182 189 192 191 181 180 180 188 193 194 197 204 198 167 111 102 101 133 101 94 85 32 43 84 114 76 46 11
206 211 114 139 100 148 162 165 162 166 177 163 179 168 163 170 181 185 187 188 188 186 189 199 199 196 192 196 201 202 204 213 218 221 216 211 231 191 205 186 187 179 307 49 85 82 58 85 148
183 97 128 133 116 156 167 152 170 192 94 116 133 173 174 182 189 195 198 198 196 197 198 209 208 209 201 211 209 215 216 224 229 234 234 236 240 240 228 235 225 231 250 323 32 79 52 12 88
212 138 112 120 129 154 138 174 113 185 147 136 144 165 182 192 198 200 203 206 205 206 206 212 218 217 216 212 213 222 224 230 232 238 240 243 246 251 251 246 249 258 258 264 259 243 257 286 313
144 138 124 133 134 127 176 155 201 139 173 202 193 173 189 198 202 200 204 207 209 210 211 213 219 224 224 225 226 228 228 230 234 242 246 246 250 255 257 259 257 260 264 266 269 267 262 275 288
146 115 141 154 138 121 166 211 215 140 144 160 203 189 189 197 201 206 209 211 213 215 213 214 220 230 229 232 232 232 242 242 244 248 251 251 251 256 257 261 263 262 264 271 277 277 273 268 280
160 174 181 151 175 139 212 239 137 178 202 202 184 197 199 204 206 205 208 216 214 214 214 214 221 236 232 233 233 235 239 247 250 249 251 255 252 251 255 258 261 262 270 272 276 278 279 274 282
196 198 211 147 202 142 214 245 125 146 176 188 184 181 199 210 210 211 214 214 215 218 216 216 226 233 234 235 237 241 243 246 253 257 258 256 259 254 255 259 259 257 259 268 273 275 278 276 273
184 216 202 203 177 202 196 235 144 162 177 181 180 183 190 198 211 215 223 224 225 221 221 222 222 238 233 237 242 246 248 250 252 260 267 266 264 264 262 262 262 262 261 262 269 272 273 274 276
196 206 198 188 119 211 220 240 212 185 226 217 228 219 222 211 217 228 228 230 228 225 224 224 224 226 240 234 241 248 253 255 257 257 267 275 273 272 271 269 266 270 272 271 272 273 271 272 272
176 193 188 97 139 206 207 241 233 178 226 221 250 248 233 213 213 240 231 232 233 230 228 224 224 222 230 243 241 245 254 259 265 269 269 271 271 274 273 275 276 275 278 281 278 281 283 283 279
189 194 179 177 147 169 241 242 187 170 158 170 162 218 212 167 153 143 208 222 227 231 230 228 222 221 221 240 248 244 245 253 260 262 269 273 274 275 272 273 273 277 277 278 280 281 283 286 289
185 167 147 141 172 205 207 242 180 168 189 170 144 155 151 133 123 114 124 148 183 213 223 221 219 222 223 224 229 250 249 250 258 267 273 277 278 278 281 280 278 278 280 280 281 283 284 285 285
144 150 138 153 185 219 193 249 142 167 198 180 148 132 135 123 121 119 118 116 117 124 146 181 200 209 217 218 208 248 261 268 287 270 273 282 282 288 286 286 284 283 285 284 286 286 287 286 283
138 118 98 113 173 238 214 228 207 176 203 164 147 139 135 126 117 119 116 113 112 111 111 117 133 149 166 186 196 203 214 234 251 261 264 262 263 262 273 278 282 287 287 287 291 287 286 286 288
169 157 151 195 196 233 54 216 242 126 166 175 156 148 144 131 122 113 115 113 112 110 109 111 114 115 115 116 116 113 104 81 41 7 346 333 326 314 302 292 286 282 278 276 276 278 280 284 284
192 186 170 188 196 188 87 229 218 124 156 149 148 146 145 138 130 121 121 121 118 115 112 111 110 109 108 107 103 95 84 71 53 35 18 0 348 337 327 321 315 310 303 297 292 288 286 282 280
179 201 72 105 18 161 185 226 181 164 161 156 156 156 152 147 140 132 128 126 124 123 120 118 114 110 107 102 97 93 82 67 47 28 11 356 346 338 332 328 323 319 315 311 307 305 302 297 295
215 146 154 216 162 215 188 240 241 185 179 172 169 169 162 156 148 140 137 136 132 128 123 120 117 114 108 101 92 76 56 34 17 2 354 348 341 335 332 330 327 324 322 319 316 313 310 306 304
162 186 212 225 236 214 187 236 337 190 184 179 177 173 169 164 158 152 150 146 140 134 129 125 118 110 98 83 64 47 28 13 0 352 347 342 338 334 332 330 328 325 323 320 317 315 313 311 309
262 217 197 202 194 290 44 255 333 208 185 180 175 170 172 169 163 159 155 149 145 139 132 126 115 107 90 67 42 25 14 6 357 351 345 339 336 333 329 325 323 322 320 318 316 313 312 310 309